N6CTG Weather Reports


Display with metric or nautical units.
time (UTC)temp
F
wind
direction
speed
MPH
gust
MPH
rain 1hr
in
rain 24hr
in
rain mn
in
humidity
%
barometer
mb
20260903092725 54 0 0.0 0.0 0.00 0.00 0.00 84 1012.2
20260903091804 54 0 0.0 0.0 0.00 0.00 0.00 83 1012.2
20260903090904 54 0 0.0 0.0 0.00 0.00 0.00 83 1012.3
20260903090004 54 0 0.0 0.0 0.00 0.00 0.00 83 1012.3
20260903085425 54 0 0.0 0.0 0.00 0.00 0.00 83 1012.4
20260903084504 54 0 0.0 0.0 0.00 0.00 0.00 82 1012.5
20260903083604 55 0 0.0 0.0 0.00 0.00 0.00 82 1012.6
20260903082704 55 0 0.0 0.0 0.00 0.00 0.00 82 1012.7
20260903081804 56 0 0.0 0.0 0.00 0.00 0.00 82 1012.7
20260903080904 56 0 0.0 0.0 0.00 0.00 0.00 82 1012.8
20260903080004 56 0 0.0 0.0 0.00 0.00 0.00 81 1012.8
20260903075404 56 0 0.0 0.0 0.00 0.00 0.00 81 1012.7
20260903074504 56 0 0.0 0.0 0.00 0.00 0.00 80 1012.8
20260903073604 57 0 0.0 0.0 0.00 0.00 0.00 80 1012.8
20260903072704 57 0 0.0 0.0 0.00 0.00 0.00 80 1012.8
20260903071804 57 0 0.0 0.0 0.00 0.00 0.00 80 1012.8
20260903070904 57 0 0.0 0.0 0.00 0.00 0.00 80 1012.7
20260903070004 57 0 0.0 0.0 0.00 0.00 0.00 79 1012.9
20260903065404 57 0 0.0 0.0 0.00 0.00 0.00 79 1012.8
20260903064504 58 0 0.0 0.0 0.00 0.00 0.00 79 1012.9
20260903063604 58 0 0.0 0.0 0.00 0.00 0.00 79 1012.8
20260903062704 58 0 0.0 0.0 0.00 0.00 0.00 79 1012.7
20260903061804 58 0 0.0 0.0 0.00 0.00 0.00 79 1012.7
20260903060904 59 0 0.0 0.0 0.00 0.00 0.00 78 1012.7
20260903060004 59 0 0.0 0.0 0.00 0.00 0.00 78 1012.7
20260903055425 59 0 0.0 0.0 0.00 0.00 0.00 77 1012.7
20260903054504 59 0 0.0 0.0 0.00 0.00 0.00 76 1012.8
20260903053604 60 0 0.0 0.0 0.00 0.00 0.00 76 1012.8
20260903052704 60 0 0.0 0.0 0.00 0.00 0.00 76 1012.9
20260903051804 61 0 0.0 0.0 0.00 0.00 0.00 76 1012.8
20260903050904 61 0 0.0 0.0 0.00 0.00 0.00 76 1012.9
20260903050004 61 0 0.0 0.0 0.00 0.00 0.00 75 1012.9
20260903045404 62 0 0.0 0.0 0.00 0.00 0.00 75 1012.9
20260903044504 62 0 0.0 0.0 0.00 0.00 0.00 74 1012.9
20260903043604 62 0 0.0 0.0 0.00 0.00 0.00 73 1012.8
20260903042704 62 0 0.0 0.0 0.00 0.00 0.00 73 1012.7
20260903041804 63 0 0.0 0.0 0.00 0.00 0.00 72 1012.6
20260903040904 63 0 0.0 0.0 0.00 0.00 0.00 71 1012.5
20260903040004 64 0 0.0 0.0 0.00 0.00 0.00 70 1012.5
20260903035404 64 0 0.0 0.0 0.00 0.00 0.00 70 1012.4
20260903034504 65 0 0.0 0.0 0.00 0.00 0.00 69 1012.3
20260903033625 65 0 0.0 0.0 0.00 0.00 0.00 68 1012.2
20260903032704 66 0 0.0 0.0 0.00 0.00 0.00 68 1012.1
20260903031804 66 0 0.0 0.0 0.00 0.00 0.00 68 1012.0
20260903030904 67 0 0.0 0.0 0.00 0.00 0.00 68 1012.0
20260903030004 67 0 0.0 0.0 0.00 0.00 0.00 67 1011.9
20260903025425 68 262 0.0 1.0 0.00 0.00 0.00 66 1011.9
20260903024504 68 251 1.0 4.0 0.00 0.00 0.00 65 1011.8
20260903023604 69 253 1.0 4.0 0.00 0.00 0.00 64 1011.7
20260903022704 70 252 2.0 5.0 0.00 0.00 0.00 63 1011.7
20260903021804 70 254 2.0 4.0 0.00 0.00 0.00 61 1011.6
20260903020904 71 257 2.0 4.0 0.00 0.00 0.00 60 1011.6
20260903020004 73 257 2.0 4.0 0.00 0.00 0.00 57 1011.5
20260903015404 73 253 2.0 7.0 0.00 0.00 0.00 56 1011.4
20260903014504 74 246 3.0 7.0 0.00 0.00 0.00 55 1011.4
20260903013604 75 250 2.0 5.0 0.00 0.00 0.00 53 1011.4
20260903012704 76 257 2.0 6.0 0.00 0.00 0.00 51 1011.4
20260903011825 77 251 2.0 6.0 0.00 0.00 0.00 50 1011.3
20260903010904 77 245 3.0 6.0 0.00 0.00 0.00 49 1011.3
20260903010025 78 251 3.0 9.0 0.00 0.00 0.00 48 1011.2
20260903005404 79 251 3.0 6.0 0.00 0.00 0.00 46 1011.2
20260903004504 79 242 4.0 7.0 0.00 0.00 0.00 46 1011.2
20260903003625 79 252 3.0 7.0 0.00 0.00 0.00 46 1011.2
20260903002703 80 247 3.0 8.0 0.00 0.00 0.00 46 1011.1
20260903001804 80 251 4.0 10.0 0.00 0.00 0.00 46 1011.0
20260903000904 80 246 4.0 8.0 0.00 0.00 0.00 46 1011.0
20260903000004 80 246 4.0 8.0 0.00 0.00 0.00 46 1011.1
20260902235404 80 251 5.0 10.0 0.00 0.00 0.00 46 1011.1
20260902234504 81 250 5.0 10.0 0.00 0.00 0.00 45 1011.2
20260902233604 81 251 5.0 11.0 0.00 0.00 0.00 45 1011.1
20260902232704 82 250 5.0 13.0 0.00 0.00 0.00 45 1011.3
20260902231804 82 250 4.0 13.0 0.00 0.00 0.00 44 1011.2
20260902230904 82 256 5.0 11.0 0.00 0.00 0.00 45 1011.3
20260902230004 83 249 5.0 12.0 0.00 0.00 0.00 43 1011.3
20260902225404 84 241 5.0 12.0 0.00 0.00 0.00 41 1011.5
20260902224504 83 249 5.0 10.0 0.00 0.00 0.00 39 1011.4
20260902223604 83 235 7.0 12.0 0.00 0.00 0.00 40 1011.4
20260902222704 84 250 6.0 12.0 0.00 0.00 0.00 41 1011.5
20260902221804 84 249 6.0 13.0 0.00 0.00 0.00 38 1011.6
20260902220904 85 243 6.0 13.0 0.00 0.00 0.00 41 1011.6
20260902220004 86 242 6.0 13.0 0.00 0.00 0.00 40 1011.6
20260902215404 86 253 5.0 9.0 0.00 0.00 0.00 32 1011.5
20260902214504 86 237 7.0 11.0 0.00 0.00 0.00 39 1011.5
20260902213625 87 241 5.0 11.0 0.00 0.00 0.00 37 1011.5
20260902212704 86 239 6.0 11.0 0.00 0.00 0.00 40 1011.7
20260902211804 86 242 6.0 13.0 0.00 0.00 0.00 41 1011.6
20260902210904 87 236 6.0 12.0 0.00 0.00 0.00 37 1011.7
20260902210004 87 231 6.0 12.0 0.00 0.00 0.00 33 1011.8
20260902205404 88 226 5.0 12.0 0.00 0.00 0.00 26 1011.8
20260902204504 88 208 2.0 8.0 0.00 0.00 0.00 25 1011.9
20260902203604 87 192 3.0 9.0 0.00 0.00 0.00 24 1012.1
20260902202725 87 212 3.0 8.0 0.00 0.00 0.00 25 1012.2
20260902200925 87 188 4.0 9.0 0.00 0.00 0.00 27 1012.5
20260902200025 86 218 4.0 11.0 0.00 0.00 0.00 24 1012.6
20260902195404 87 190 2.0 8.0 0.00 0.00 0.00 21 1012.7
20260902194504 86 208 3.0 10.0 0.00 0.00 0.00 19 1012.8
20260902193604 86 210 3.0 8.0 0.00 0.00 0.00 19 1012.9
20260902192704 86 198 3.0 9.0 0.00 0.00 0.00 20 1013.0
20260902191804 85 205 3.0 7.0 0.00 0.00 0.00 23 1013.0
20260902190904 85 192 3.0 8.0 0.00 0.00 0.00 24 1013.1
20260902190004 85 152 2.0 7.0 0.00 0.00 0.00 22 1013.2
20260902185404 85 177 2.0 7.0 0.00 0.00 0.00 24 1013.3
20260902184504 84 195 3.0 7.0 0.00 0.00 0.00 25 1013.4
20260902183625 84 148 4.0 9.0 0.00 0.00 0.00 24 1013.5
20260902182704 84 208 3.0 8.0 0.00 0.00 0.00 23 1013.5
20260902181825 83 231 4.0 10.0 0.00 0.00 0.00 21 1013.6
20260902180903 83 226 3.0 10.0 0.00 0.00 0.00 20 1013.5
20260902180006 82 218 3.0 6.0 0.00 0.00 0.00 22 1013.6
20260902175404 82 215 3.0 7.0 0.00 0.00 0.00 22 1013.6
20260902174504 81 226 3.0 7.0 0.00 0.00 0.00 22 1013.6
20260902173604 81 224 1.0 5.0 0.00 0.00 0.00 27 1013.6
20260902172725 80 200 1.0 3.0 0.00 0.00 0.00 30 1013.6
20260902171804 79 229 1.0 4.0 0.00 0.00 0.00 30 1013.6
20260902170904 78 257 1.0 3.0 0.00 0.00 0.00 32 1013.5
20260902170004 77 13 0.0 2.0 0.00 0.00 0.00 35 1013.5
20260902165404 75 253 0.0 2.0 0.00 0.00 0.00 37 1013.5
20260902164504 74 230 0.0 2.0 0.00 0.00 0.00 38 1013.5
20260902163604 74 227 0.0 3.0 0.00 0.00 0.00 41 1013.6
20260902162725 74 225 0.0 2.0 0.00 0.00 0.00 47 1013.6
20260902161804 73 144 0.0 3.0 0.00 0.00 0.00 51 1013.7
20260902160904 71 210 0.0 1.0 0.00 0.00 0.00 56 1013.7
20260902160005 70 219 0.0 1.0 0.00 0.00 0.00 56 1013.9
20260902155404 69 232 0.0 1.0 0.00 0.00 0.00 55 1013.8
20260902154525 68 0 0.0 0.0 0.00 0.00 0.00 53 1013.7
20260902153625 67 0 0.0 0.0 0.00 0.00 0.00 51 1013.7
20260902152704 66 0 0.0 0.0 0.00 0.00 0.00 52 1013.5
20260902151804 64 287 0.0 1.0 0.00 0.00 0.00 56 1013.6
20260902150904 63 0 0.0 0.0 0.00 0.00 0.00 65 1013.6
20260902150004 61 0 0.0 0.0 0.00 0.00 0.00 68 1013.7
20260902145403 61 0 0.0 0.0 0.00 0.00 0.00 70 1013.7
20260902144504 60 287 0.0 1.0 0.00 0.00 0.00 71 1013.6
20260902143604 61 0 0.0 0.0 0.00 0.00 0.00 70 1013.5
20260902142705 60 0 0.0 0.0 0.00 0.00 0.00 74 1013.6
20260902141804 58 0 0.0 0.0 0.00 0.00 0.00 76 1013.4
20260902140925 51 0 0.0 0.0 0.00 0.00 0.00 80 1013.3
20260902140004 51 0 0.0 0.0 0.00 0.00 0.00 80 1013.3
20260902135404 51 0 0.0 0.0 0.00 0.00 0.00 80 1013.2
20260902134504 51 0 0.0 0.0 0.00 0.00 0.00 80 1013.2
20260902133604 51 0 0.0 0.0 0.00 0.00 0.00 80 1013.1
20260902132725 51 0 0.0 0.0 0.00 0.00 0.00 80 1012.9
20260902131804 51 0 0.0 0.0 0.00 0.00 0.00 80 1012.8
20260902130904 51 0 0.0 0.0 0.00 0.00 0.00 80 1012.8
20260902130004 51 0 0.0 0.0 0.00 0.00 0.00 80 1012.6
20260902125404 51 0 0.0 0.0 0.00 0.00 0.00 80 1012.6
20260902124504 51 0 0.0 0.0 0.00 0.00 0.00 80 1012.6
20260902123604 51 0 0.0 0.0 0.00 0.00 0.00 80 1012.7
20260902122704 51 0 0.0 0.0 0.00 0.00 0.00 80 1012.7
20260902121804 51 0 0.0 0.0 0.00 0.00 0.00 80 1012.7
20260902120904 51 0 0.0 0.0 0.00 0.00 0.00 80 1012.7
20260902120004 51 0 0.0 0.0 0.00 0.00 0.00 80 1012.7
20260902115404 51 0 0.0 0.0 0.00 0.00 0.00 80 1012.7
20260902114525 51 0 0.0 0.0 0.00 0.00 0.00 80 1012.7
20260902113604 51 0 0.0 0.0 0.00 0.00 0.00 80 1012.8
20260902112725 53 0 0.0 0.0 0.00 0.00 0.00 81 1012.8
20260902111804 53 0 0.0 0.0 0.00 0.00 0.00 81 1012.8
20260902110904 54 0 0.0 0.0 0.00 0.00 0.00 81 1012.8
20260902110007 54 0 0.0 0.0 0.00 0.00 0.00 81 1012.8
20260902105404 54 0 0.0 0.0 0.00 0.00 0.00 81 1012.9
20260902104504 54 0 0.0 0.0 0.00 0.00 0.00 81 1012.9
20260902103604 54 0 0.0 0.0 0.00 0.00 0.00 81 1013.1
20260902102704 54 0 0.0 0.0 0.00 0.00 0.00 80 1013.1
20260902101804 54 0 0.0 0.0 0.00 0.00 0.00 80 1013.1
20260902100904 55 0 0.0 0.0 0.00 0.00 0.00 80 1013.2
20260902100004 55 0 0.0 0.0 0.00 0.00 0.00 79 1013.2
20260902095404 55 0 0.0 0.0 0.00 0.00 0.00 79 1013.3
20260902094504 56 0 0.0 0.0 0.00 0.00 0.00 79 1013.2
20260902093625 56 0 0.0 0.0 0.00 0.00 0.00 80 1013.3